Time,TemperatureF,DewpointF,PressureIn,WindDirection,WindDirectionDegrees,WindSpeedMPH,WindSpeedGustMPH,Humidity,HourlyPrecipIn,Conditions,Clouds,dailyrainin,SoftwareType,DateUTC
2013-03-12 00:03:00,39.0,32.0,-100.00,NNE,33,0.0,-999.0,77,0.00,,,0.00,,2013-03-12 04:03:00,
2013-03-12 00:13:00,39.0,32.0,-100.00,NNE,33,0.0,-999.0,77,0.00,,,0.00,,2013-03-12 04:13:00,
2013-03-12 00:23:00,39.0,32.0,-100.00,NNE,33,0.0,-999.0,77,0.00,,,0.00,,2013-03-12 04:23:00,
2013-03-12 00:32:00,39.0,32.0,-100.00,NNE,33,0.0,-999.0,77,0.00,,,0.00,,2013-03-12 04:32:00,
2013-03-12 00:43:00,39.0,32.0,-100.00,NNE,33,0.0,-999.0,77,0.00,,,0.00,,2013-03-12 04:43:00,
2013-03-12 01:03:00,40.0,34.0,-100.00,NNE,17,0.0,-999.0,79,0.00,,,0.00,,2013-03-12 05:03:00,
2013-03-12 01:12:00,40.0,34.0,-100.00,NNE,17,0.0,-999.0,79,0.00,,,0.00,,2013-03-12 05:12:00,
2013-03-12 01:22:00,40.0,34.0,-100.00,NNE,17,0.0,-999.0,79,0.00,,,0.00,,2013-03-12 05:22:00,
2013-03-12 01:32:00,40.0,34.0,-100.00,NNE,17,0.0,-999.0,79,0.00,,,0.00,,2013-03-12 05:32:00,
2013-03-12 01:42:00,40.0,34.0,-100.00,NNE,17,0.0,-999.0,79,0.00,,,0.00,,2013-03-12 05:42:00,
2013-03-12 02:02:00,40.0,33.0,-100.00,North,8,0.0,-999.0,76,0.00,,,0.00,,2013-03-12 06:02:00,
2013-03-12 02:12:00,40.0,33.0,-100.00,North,8,0.0,-999.0,76,0.00,,,0.00,,2013-03-12 06:12:00,
2013-03-12 02:22:00,40.0,33.0,-100.00,North,8,0.0,-999.0,76,0.00,,,0.00,,2013-03-12 06:22:00,
2013-03-12 02:32:00,40.0,33.0,-100.00,North,8,0.0,-999.0,76,0.00,,,0.00,,2013-03-12 06:32:00,
2013-03-12 02:42:00,40.0,33.0,-100.00,North,8,0.0,-999.0,76,0.00,,,0.00,,2013-03-12 06:42:00,
2013-03-12 03:02:00,39.0,34.0,-100.00,North,5,0.0,-999.0,81,0.00,,,0.00,,2013-03-12 07:02:00,
2013-03-12 03:12:00,39.0,34.0,-100.00,North,5,0.0,-999.0,81,0.00,,,0.00,,2013-03-12 07:12:00,
2013-03-12 03:22:00,39.0,34.0,-100.00,North,5,0.0,-999.0,81,0.00,,,0.00,,2013-03-12 07:22:00,
2013-03-12 03:32:00,39.0,34.0,-100.00,North,5,0.0,-999.0,81,0.00,,,0.00,,2013-03-12 07:32:00,
2013-03-12 03:42:00,39.0,34.0,-100.00,North,5,0.0,-999.0,81,0.00,,,0.00,,2013-03-12 07:42:00,
2013-03-12 04:02:00,42.0,38.0,-100.00,North,6,0.0,-999.0,86,0.00,,,0.00,,2013-03-12 08:02:00,
2013-03-12 04:13:00,42.0,38.0,-100.00,North,6,0.0,-999.0,86,0.00,,,0.00,,2013-03-12 08:13:00,
2013-03-12 04:22:00,42.0,38.0,-100.00,North,6,0.0,-999.0,86,0.00,,,0.00,,2013-03-12 08:22:00,
2013-03-12 04:33:00,42.0,38.0,-100.00,North,6,0.0,-999.0,86,0.00,,,0.00,,2013-03-12 08:33:00,
2013-03-12 04:42:00,42.0,38.0,-100.00,North,6,0.0,-999.0,86,0.00,,,0.00,,2013-03-12 08:42:00,
2013-03-12 05:03:00,42.0,38.0,-100.00,North,5,0.0,-999.0,87,0.00,,,0.00,,2013-03-12 09:03:00,
2013-03-12 05:12:00,42.0,38.0,-100.00,North,5,0.0,-999.0,87,0.00,,,0.00,,2013-03-12 09:12:00,
2013-03-12 05:22:00,42.0,38.0,-100.00,North,5,0.0,-999.0,87,0.00,,,0.00,,2013-03-12 09:22:00,
2013-03-12 05:33:00,42.0,38.0,-100.00,North,5,0.0,-999.0,87,0.00,,,0.00,,2013-03-12 09:33:00,
2013-03-12 05:42:00,42.0,38.0,-100.00,North,5,0.0,-999.0,87,0.00,,,0.00,,2013-03-12 09:42:00,
2013-03-12 06:02:00,42.0,40.0,-100.00,NNE,16,0.0,-999.0,91,0.00,,,0.00,,2013-03-12 10:02:00,
2013-03-12 06:12:00,42.0,40.0,-100.00,NNE,16,0.0,-999.0,91,0.00,,,0.00,,2013-03-12 10:12:00,
2013-03-12 06:22:00,42.0,40.0,-100.00,NNE,16,0.0,-999.0,91,0.00,,,0.00,,2013-03-12 10:22:00,
2013-03-12 06:33:00,42.0,40.0,-100.00,NNE,16,0.0,-999.0,91,0.00,,,0.00,,2013-03-12 10:33:00,
2013-03-12 06:42:00,42.0,40.0,-100.00,NNE,16,0.0,-999.0,91,0.00,,,0.00,,2013-03-12 10:42:00,
2013-03-12 07:02:00,42.0,40.0,-100.00,NNE,27,0.0,-999.0,92,0.00,,,0.00,,2013-03-12 11:02:00,
2013-03-12 07:12:00,42.0,40.0,-100.00,NNE,27,0.0,-999.0,92,0.00,,,0.00,,2013-03-12 11:12:00,
2013-03-12 07:22:00,42.0,40.0,-100.00,NNE,27,0.0,-999.0,92,0.00,,,0.00,,2013-03-12 11:22:00,
2013-03-12 07:32:00,42.0,40.0,-100.00,NNE,27,0.0,-999.0,92,0.00,,,0.00,,2013-03-12 11:32:00,
2013-03-12 07:42:00,42.0,40.0,-100.00,NNE,27,0.0,-999.0,92,0.00,,,0.00,,2013-03-12 11:42:00,
2013-03-12 08:03:00,41.0,39.0,-100.00,NNE,19,0.0,-999.0,91,0.00,,,0.00,,2013-03-12 12:03:00,
2013-03-12 08:12:00,41.0,39.0,-100.00,NNE,19,0.0,-999.0,91,0.00,,,0.00,,2013-03-12 12:12:00,
2013-03-12 08:22:00,41.0,39.0,-100.00,NNE,19,0.0,-999.0,91,0.00,,,0.00,,2013-03-12 12:22:00,
2013-03-12 08:32:00,41.0,39.0,-100.00,NNE,19,0.0,-999.0,91,0.00,,,0.00,,2013-03-12 12:32:00,
2013-03-12 08:42:00,41.0,39.0,-100.00,NNE,19,0.0,-999.0,91,0.00,,,0.00,,2013-03-12 12:42:00,
2013-03-12 09:02:00,40.0,38.0,-100.00,NNE,20,0.0,-999.0,93,0.00,,,0.00,,2013-03-12 13:02:00,
2013-03-12 09:12:00,40.0,38.0,-100.00,NNE,20,0.0,-999.0,93,0.00,,,0.00,,2013-03-12 13:12:00,
2013-03-12 09:22:00,40.0,38.0,-100.00,NNE,20,0.0,-999.0,93,0.00,,,0.00,,2013-03-12 13:22:00,
2013-03-12 09:32:00,40.0,38.0,-100.00,NNE,20,0.0,-999.0,93,0.00,,,0.00,,2013-03-12 13:32:00,
2013-03-12 09:42:00,40.0,38.0,-100.00,NNE,20,0.0,-999.0,93,0.00,,,0.00,,2013-03-12 13:42:00,
2013-03-12 10:02:00,41.0,39.0,-100.00,NNE,18,0.0,-999.0,92,0.00,,,0.00,,2013-03-12 14:02:00,
2013-03-12 10:12:00,41.0,39.0,-100.00,NNE,18,0.0,-999.0,92,0.00,,,0.00,,2013-03-12 14:12:00,
2013-03-12 10:22:00,41.0,39.0,-100.00,NNE,18,0.0,-999.0,92,0.00,,,0.00,,2013-03-12 14:22:00,
2013-03-12 10:33:00,41.0,39.0,-100.00,NNE,18,0.0,-999.0,92,0.00,,,0.00,,2013-03-12 14:33:00,
2013-03-12 10:42:00,41.0,39.0,-100.00,NNE,18,0.0,-999.0,92,0.00,,,0.00,,2013-03-12 14:42:00,
2013-03-12 11:03:00,45.0,43.0,-100.00,NNE,30,0.0,-999.0,93,0.08,,,0.08,,2013-03-12 15:03:00,
2013-03-12 11:13:00,45.0,43.0,-100.00,NNE,30,0.0,-999.0,93,0.08,,,0.08,,2013-03-12 15:13:00,
2013-03-12 11:23:00,45.0,43.0,-100.00,NNE,30,0.0,-999.0,93,0.08,,,0.08,,2013-03-12 15:23:00,
2013-03-12 11:32:00,45.0,43.0,-100.00,NNE,30,0.0,-999.0,93,0.08,,,0.08,,2013-03-12 15:32:00,
2013-03-12 11:42:00,45.0,43.0,-100.00,NNE,30,0.0,-999.0,93,0.08,,,0.08,,2013-03-12 15:42:00,
2013-03-12 12:03:00,46.0,44.0,-100.00,NNE,28,0.0,-999.0,92,0.00,,,0.08,,2013-03-12 16:03:00,
2013-03-12 12:12:00,46.0,44.0,-100.00,NNE,28,0.0,-999.0,92,0.00,,,0.08,,2013-03-12 16:12:00,
2013-03-12 12:23:00,46.0,44.0,-100.00,NNE,28,0.0,-999.0,92,0.00,,,0.08,,2013-03-12 16:23:00,
2013-03-12 12:33:00,46.0,44.0,-100.00,NNE,28,0.0,-999.0,92,0.00,,,0.08,,2013-03-12 16:33:00,
2013-03-12 12:43:00,46.0,44.0,-100.00,NNE,28,0.0,-999.0,92,0.00,,,0.08,,2013-03-12 16:43:00,
2013-03-12 13:03:00,46.0,44.0,-100.00,NNE,16,0.0,-999.0,93,0.01,,,0.09,,2013-03-12 17:03:00,
2013-03-12 13:13:00,46.0,44.0,-100.00,NNE,16,0.0,-999.0,93,0.01,,,0.09,,2013-03-12 17:13:00,
2013-03-12 13:23:00,46.0,44.0,-100.00,NNE,16,0.0,-999.0,93,0.01,,,0.09,,2013-03-12 17:23:00,
2013-03-12 13:34:00,46.0,44.0,-100.00,NNE,16,0.0,-999.0,93,0.01,,,0.09,,2013-03-12 17:34:00,
2013-03-12 13:44:00,46.0,44.0,-100.00,NNE,16,0.0,-999.0,93,0.01,,,0.09,,2013-03-12 17:44:00,
2013-03-12 14:03:00,48.0,46.0,-100.00,North,-999,0.0,-999.0,93,0.01,,,0.10,,2013-03-12 18:03:00,
2013-03-12 14:13:00,48.0,46.0,-100.00,North,-999,0.0,-999.0,93,0.01,,,0.10,,2013-03-12 18:13:00,
2013-03-12 14:23:00,48.0,46.0,-100.00,North,-999,0.0,-999.0,93,0.01,,,0.10,,2013-03-12 18:23:00,
2013-03-12 14:33:00,48.0,46.0,-100.00,North,-999,0.0,-999.0,93,0.01,,,0.10,,2013-03-12 18:33:00,
2013-03-12 14:42:00,48.0,46.0,-100.00,North,-999,0.0,-999.0,93,0.01,,,0.10,,2013-03-12 18:42:00,
2013-03-12 15:04:00,49.0,46.0,-100.00,North,-999,0.0,-999.0,91,0.02,,,0.12,,2013-03-12 19:04:00,
2013-03-12 15:13:00,49.0,46.0,-100.00,North,-999,0.0,-999.0,91,0.02,,,0.12,,2013-03-12 19:13:00,
2013-03-12 15:23:00,49.0,46.0,-100.00,North,-999,0.0,-999.0,91,0.02,,,0.12,,2013-03-12 19:23:00,
2013-03-12 15:33:00,49.0,46.0,-100.00,North,-999,0.0,-999.0,91,0.02,,,0.12,,2013-03-12 19:33:00,
2013-03-12 15:43:00,49.0,46.0,-100.00,North,-999,0.0,-999.0,91,0.02,,,0.12,,2013-03-12 19:43:00,
2013-03-12 16:02:00,49.0,46.0,-100.00,North,1,0.0,-999.0,91,0.04,,,0.16,,2013-03-12 20:02:00,
2013-03-12 16:13:00,49.0,46.0,-100.00,North,1,0.0,-999.0,91,0.04,,,0.16,,2013-03-12 20:13:00,
2013-03-12 16:23:00,49.0,46.0,-100.00,North,1,0.0,-999.0,91,0.04,,,0.16,,2013-03-12 20:23:00,
2013-03-12 16:33:00,49.0,46.0,-100.00,North,1,0.0,-999.0,91,0.04,,,0.16,,2013-03-12 20:33:00,
2013-03-12 16:42:00,49.0,46.0,-100.00,North,1,0.0,-999.0,91,0.04,,,0.16,,2013-03-12 20:42:00,
2013-03-12 17:03:00,48.0,46.0,-100.00,ENE,61,0.0,-999.0,92,0.03,,,0.19,,2013-03-12 21:03:00,
2013-03-12 17:13:00,48.0,46.0,-100.00,ENE,61,0.0,-999.0,92,0.03,,,0.19,,2013-03-12 21:13:00,
2013-03-12 17:23:00,48.0,46.0,-100.00,ENE,61,0.0,-999.0,92,0.03,,,0.19,,2013-03-12 21:23:00,
2013-03-12 17:33:00,48.0,46.0,-100.00,ENE,61,0.0,-999.0,92,0.03,,,0.19,,2013-03-12 21:33:00,
2013-03-12 17:43:00,48.0,46.0,-100.00,ENE,61,0.0,-999.0,92,0.03,,,0.19,,2013-03-12 21:43:00,
2013-03-12 18:03:00,49.0,46.0,-100.00,NNE,13,0.0,-999.0,91,0.01,,,0.20,,2013-03-12 22:03:00,
2013-03-12 18:13:00,49.0,46.0,-100.00,NNE,13,0.0,-999.0,91,0.01,,,0.20,,2013-03-12 22:13:00,
2013-03-12 18:23:00,49.0,46.0,-100.00,NNE,13,0.0,-999.0,91,0.01,,,0.20,,2013-03-12 22:23:00,
2013-03-12 18:33:00,49.0,46.0,-100.00,NNE,13,0.0,-999.0,91,0.01,,,0.20,,2013-03-12 22:33:00,
2013-03-12 18:43:00,49.0,46.0,-100.00,NNE,13,0.0,-999.0,91,0.01,,,0.20,,2013-03-12 22:43:00,
2013-03-12 19:03:00,48.0,46.0,-100.00,North,3,0.0,-999.0,93,0.05,,,0.25,,2013-03-12 23:03:00,
2013-03-12 19:12:00,48.0,46.0,-100.00,North,3,0.0,-999.0,93,0.05,,,0.25,,2013-03-12 23:12:00,
2013-03-12 19:23:00,48.0,46.0,-100.00,North,3,0.0,-999.0,93,0.05,,,0.25,,2013-03-12 23:23:00,
2013-03-12 19:34:00,48.0,46.0,-100.00,North,3,0.0,-999.0,93,0.05,,,0.25,,2013-03-12 23:34:00,
2013-03-12 19:43:00,48.0,46.0,-100.00,North,3,0.0,-999.0,93,0.05,,,0.25,,2013-03-12 23:43:00,
2013-03-12 20:03:00,48.0,46.0,-100.00,North,-999,0.0,-999.0,93,0.12,,,0.37,,2013-03-13 00:03:00,
2013-03-12 20:13:00,48.0,46.0,-100.00,North,-999,0.0,-999.0,93,0.12,,,0.37,,2013-03-13 00:13:00,
2013-03-12 20:23:00,48.0,46.0,-100.00,North,-999,0.0,-999.0,93,0.12,,,0.37,,2013-03-13 00:23:00,
2013-03-12 20:33:00,48.0,46.0,-100.00,North,-999,0.0,-999.0,93,0.12,,,0.37,,2013-03-13 00:33:00,
2013-03-12 20:42:00,48.0,46.0,-100.00,North,-999,0.0,-999.0,93,0.12,,,0.37,,2013-03-13 00:42:00,
2013-03-12 21:03:00,48.0,46.0,-100.00,North,-999,0.0,-999.0,93,0.07,,,0.44,,2013-03-13 01:03:00,
2013-03-12 21:13:00,48.0,46.0,-100.00,North,-999,0.0,-999.0,93,0.07,,,0.44,,2013-03-13 01:13:00,
2013-03-12 21:22:00,48.0,46.0,-100.00,North,-999,0.0,-999.0,93,0.07,,,0.44,,2013-03-13 01:22:00,
2013-03-12 21:33:00,48.0,46.0,-100.00,North,-999,0.0,-999.0,93,0.07,,,0.44,,2013-03-13 01:33:00,
2013-03-12 21:43:00,48.0,46.0,-100.00,North,-999,0.0,-999.0,93,0.07,,,0.44,,2013-03-13 01:43:00,
2013-03-12 23:02:00,46.0,45.0,-100.00,SE,135,0.0,-999.0,95,-99.99,,,0.48,,2013-03-13 03:02:00,
2013-03-12 23:13:00,46.0,45.0,-100.00,SE,135,0.0,-999.0,95,-99.99,,,0.48,,2013-03-13 03:13:00,
2013-03-12 23:22:00,46.0,45.0,-100.00,SE,135,0.0,-999.0,95,-99.99,,,0.48,,2013-03-13 03:22:00,
2013-03-12 23:32:00,46.0,45.0,-100.00,SE,135,0.0,-999.0,95,-99.99,,,0.48,,2013-03-13 03:32:00,
2013-03-12 23:42:00,46.0,45.0,-100.00,SE,135,0.0,-999.0,95,-99.99,,,0.48,,2013-03-13 03:42:00,